| time (UTC) | temp F | wind direction | speed MPH | gust MPH | rain 1hr in | rain 24hr in | rain mn in | humidity % | barometer mb |
| 20260905230026 | 76 | 350 | 2.0 | 5.0 | 0.00 | 0.00 | 0.00 | 68 | 1010.7 |
| 20260905224518 | 76 | 341 | 1.0 | 5.0 | 0.00 | 0.00 | 0.00 | 69 | 1010.7 |
| 20260905223015 | 76 | 318 | 1.0 | 8.0 | 0.00 | 0.00 | 0.00 | 70 | 1010.5 |
| 20260905221510 | 76 | 344 | 2.0 | 5.0 | 0.00 | 0.00 | 0.00 | 70 | 1010.4 |
| 20260905220010 | 76 | 360 | 2.0 | 9.0 | 0.00 | 0.00 | 0.00 | 70 | 1010.4 |
| 20260905214507 | 77 | 351 | 2.0 | 5.0 | 0.00 | 0.00 | 0.00 | 69 | 1009.9 |
| 20260905213007 | 77 | 333 | 2.0 | 5.0 | 0.00 | 0.00 | 0.00 | 68 | 1010.0 |
| 20260905211520 | 78 | 344 | 1.0 | 8.0 | 0.00 | 0.00 | 0.00 | 67 | 1009.9 |
| 20260905210010 | 78 | 350 | 2.0 | 6.0 | 0.00 | 0.00 | 0.00 | 68 | 1010.0 |
| 20260905204507 | 77 | 24 | 1.0 | 4.0 | 0.00 | 0.00 | 0.00 | 69 | 1010.0 |
| 20260905203005 | 76 | 30 | 2.0 | 6.0 | 0.00 | 0.00 | 0.00 | 69 | 1010.2 |
| 20260905201504 | 78 | 54 | 1.0 | 5.0 | 0.00 | 0.00 | 0.00 | 68 | 1010.2 |
| 20260905200003 | 78 | 13 | 1.0 | 6.0 | 0.00 | 0.00 | 0.00 | 68 | 1010.3 |
| 20260905194606 | 78 | 28 | 2.0 | 10.0 | 0.00 | 0.00 | 0.00 | 67 | 1010.6 |
| 20260905193100 | 78 | 69 | 2.0 | 5.0 | 0.00 | 0.00 | 0.00 | 68 | 1010.7 |
| 20260905191559 | 77 | 53 | 1.0 | 6.0 | 0.00 | 0.00 | 0.00 | 71 | 1010.9 |
| 20260905190058 | 76 | 65 | 0.0 | 5.0 | 0.00 | 0.00 | 0.00 | 71 | 1011.0 |
| 20260905184557 | 76 | 49 | 2.0 | 6.0 | 0.00 | 0.00 | 0.00 | 71 | 1011.0 |
| 20260905183057 | 77 | 55 | 0.0 | 5.0 | 0.00 | 0.00 | 0.00 | 71 | 1011.1 |
| 20260905181555 | 75 | 32 | 4.0 | 7.0 | 0.00 | 0.00 | 0.00 | 73 | 1011.2 |
| 20260905174555 | 78 | 51 | 0.0 | 5.0 | 0.00 | 0.00 | 0.00 | 69 | 1011.1 |
| 20260905173101 | 78 | 326 | 5.0 | 8.0 | 0.00 | 0.00 | 0.00 | 69 | 1011.2 |
| 20260905171550 | 76 | 37 | 3.0 | 6.0 | 0.00 | 0.00 | 0.00 | 72 | 1011.2 |
| 20260905170049 | 76 | 48 | 2.0 | 6.0 | 0.00 | 0.00 | 0.00 | 73 | 1011.4 |
| 20260905164547 | 75 | 53 | 2.0 | 6.0 | 0.00 | 0.00 | 0.00 | 74 | 1011.5 |
| 20260905163047 | 75 | 342 | 2.0 | 6.0 | 0.00 | 0.00 | 0.00 | 73 | 1011.8 |
| 20260905161545 | 76 | 24 | 3.0 | 6.0 | 0.00 | 0.00 | 0.00 | 71 | 1011.8 |
| 20260905160045 | 76 | 336 | 1.0 | 6.0 | 0.00 | 0.00 | 0.00 | 72 | 1012.3 |
| 20260905154545 | 77 | 71 | 0.0 | 3.0 | 0.00 | 0.00 | 0.00 | 71 | 1012.2 |
| 20260905153042 | 77 | 102 | 0.0 | 4.0 | 0.00 | 0.00 | 0.00 | 72 | 1011.9 |
| 20260905151546 | 74 | 128 | 0.0 | 5.0 | 0.00 | 0.00 | 0.00 | 75 | 1011.9 |
| 20260905150038 | 74 | 230 | 1.0 | 4.0 | 0.00 | 0.00 | 0.00 | 75 | 1011.9 |
| 20260905144536 | 73 | 81 | 0.0 | 4.0 | 0.00 | 0.00 | 0.00 | 76 | 1011.8 |
| 20260905143045 | 73 | 135 | 0.0 | 3.0 | 0.00 | 0.00 | 0.00 | 78 | 1011.9 |
| 20260905141532 | 71 | 360 | 0.0 | 2.0 | 0.00 | 0.00 | 0.00 | 83 | 1011.5 |
| 20260905140032 | 69 | 360 | 1.0 | 3.0 | 0.00 | 0.00 | 0.00 | 86 | 1011.6 |
| 20260905134534 | 69 | 10 | 2.0 | 5.0 | 0.00 | 0.00 | 0.00 | 87 | 1011.7 |
| 20260905133026 | 68 | 360 | 1.0 | 4.0 | 0.00 | 0.00 | 0.00 | 87 | 1011.9 |
| 20260905131527 | 68 | 360 | 1.0 | 3.0 | 0.00 | 0.00 | 0.00 | 88 | 1012.1 |
| 20260905130022 | 67 | 360 | 1.0 | 4.0 | 0.00 | 0.00 | 0.00 | 88 | 1011.9 |
| 20260905124532 | 67 | 360 | 0.0 | 4.0 | 0.00 | 0.00 | 0.00 | 88 | 1011.8 |
| 20260905123014 | 67 | 360 | 0.0 | 4.0 | 0.00 | 0.00 | 0.00 | 88 | 1011.9 |
| 20260905121517 | 67 | 360 | 0.0 | 4.0 | 0.00 | 0.00 | 0.00 | 88 | 1012.0 |
| 20260905120010 | 67 | 360 | 1.0 | 4.0 | 0.00 | 0.00 | 0.00 | 88 | 1011.9 |
| 20260905114509 | 67 | 360 | 2.0 | 4.0 | 0.00 | 0.00 | 0.00 | 88 | 1011.8 |
| 20260905113005 | 67 | 360 | 2.0 | 5.0 | 0.00 | 0.00 | 0.00 | 87 | 1011.6 |
| 20260905111507 | 68 | 360 | 2.0 | 4.0 | 0.00 | 0.00 | 0.00 | 88 | 1011.4 |
| 20260905110003 | 68 | 360 | 0.0 | 4.0 | 0.00 | 0.00 | 0.00 | 87 | 1011.5 |
| 20260905104503 | 68 | 360 | 0.0 | 4.0 | 0.00 | 0.00 | 0.00 | 87 | 1011.4 |
| 20260905103101 | 68 | 360 | 0.0 | 3.0 | 0.00 | 0.00 | 0.00 | 87 | 1011.2 |
| 20260905101609 | 68 | 360 | 1.0 | 4.0 | 0.00 | 0.00 | 0.00 | 87 | 1011.1 |
| 20260905100100 | 68 | 360 | 0.0 | 1.0 | 0.00 | 0.00 | 0.00 | 87 | 1010.7 |
| 20260905094559 | 68 | 360 | 0.0 | 2.0 | 0.00 | 0.00 | 0.00 | 87 | 1010.4 |
| 20260905093116 | 68 | 360 | 1.0 | 3.0 | 0.00 | 0.00 | 0.00 | 86 | 1010.7 |
| 20260905091604 | 69 | 360 | 0.0 | 2.0 | 0.00 | 0.00 | 0.00 | 86 | 1010.5 |
| 20260905090055 | 69 | 360 | 0.0 | 3.0 | 0.00 | 0.00 | 0.00 | 85 | 1010.4 |
| 20260905084554 | 69 | 360 | 0.0 | 3.0 | 0.00 | 0.01 | 0.00 | 85 | 1010.4 |
| 20260905083051 | 70 | 360 | 1.0 | 3.0 | 0.00 | 0.01 | 0.00 | 85 | 1010.9 |
| 20260905081552 | 70 | 360 | 0.0 | 2.0 | 0.00 | 0.01 | 0.00 | 84 | 1011.1 |
| 20260905080055 | 70 | 360 | 0.0 | 2.0 | 0.00 | 0.01 | 0.00 | 84 | 1010.8 |
| 20260905074547 | 70 | 360 | 0.0 | 0.0 | 0.00 | 0.01 | 0.00 | 83 | 1010.7 |
| 20260905073046 | 71 | 360 | 0.0 | 1.0 | 0.00 | 0.01 | 0.00 | 83 | 1010.7 |
| 20260905071544 | 71 | 360 | 0.0 | 3.0 | 0.00 | 0.01 | 0.00 | 83 | 1011.0 |
| 20260905070049 | 71 | 360 | 1.0 | 3.0 | 0.00 | 0.01 | 0.00 | 83 | 1011.2 |
| 20260905064544 | 71 | 360 | 1.0 | 3.0 | 0.00 | 0.01 | 0.00 | 83 | 1011.6 |
| 20260905063042 | 71 | 360 | 0.0 | 4.0 | 0.00 | 0.01 | 0.00 | 83 | 1012.0 |
| 20260905061538 | 71 | 360 | 0.0 | 3.0 | 0.00 | 0.01 | 0.00 | 83 | 1011.8 |
| 20260905060037 | 71 | 360 | 0.0 | 3.0 | 0.00 | 0.01 | 0.00 | 83 | 1011.9 |
| 20260905054547 | 72 | 360 | 0.0 | 3.0 | 0.00 | 0.38 | 0.00 | 83 | 1012.3 |
| 20260905053035 | 72 | 360 | 0.0 | 4.0 | 0.00 | 0.38 | 0.00 | 83 | 1012.4 |
| 20260905051534 | 72 | 360 | 0.0 | 2.0 | 0.00 | 0.38 | 0.00 | 82 | 1012.4 |
| 20260905050033 | 71 | 360 | 0.0 | 3.0 | 0.00 | 0.38 | 0.00 | 82 | 1012.6 |
| 20260905044532 | 71 | 360 | 0.0 | 1.0 | 0.00 | 0.38 | 0.00 | 82 | 1012.6 |
| 20260905043030 | 72 | 360 | 0.0 | 0.0 | 0.00 | 0.38 | 0.00 | 81 | 1012.5 |
| 20260905041529 | 72 | 360 | 0.0 | 2.0 | 0.00 | 0.38 | 0.00 | 81 | 1012.1 |
| 20260905040033 | 72 | 360 | 0.0 | 3.0 | 0.00 | 0.38 | 0.00 | 81 | 1012.2 |
| 20260905034531 | 72 | 360 | 1.0 | 4.0 | 0.00 | 0.38 | 0.38 | 80 | 1012.3 |
| 20260905033030 | 72 | 360 | 1.0 | 3.0 | 0.00 | 0.38 | 0.38 | 80 | 1012.3 |
| 20260905031529 | 72 | 360 | 1.0 | 4.0 | 0.00 | 0.38 | 0.38 | 80 | 1012.2 |
| 20260905030025 | 72 | 360 | 1.0 | 3.0 | 0.00 | 0.38 | 0.38 | 80 | 1012.1 |
| 20260905024524 | 73 | 360 | 1.0 | 4.0 | 0.00 | 0.38 | 0.38 | 79 | 1012.3 |
| 20260905023023 | 73 | 360 | 2.0 | 4.0 | 0.00 | 0.38 | 0.38 | 78 | 1012.2 |
| 20260905021523 | 73 | 360 | 1.0 | 4.0 | 0.00 | 0.38 | 0.38 | 78 | 1012.2 |
| 20260905020026 | 73 | 360 | 1.0 | 4.0 | 0.00 | 0.38 | 0.38 | 77 | 1012.3 |
| 20260905014522 | 74 | 360 | 1.0 | 4.0 | 0.00 | 0.38 | 0.38 | 77 | 1012.4 |
| 20260905013021 | 74 | 360 | 2.0 | 4.0 | 0.00 | 0.38 | 0.38 | 77 | 1012.3 |
| 20260905011521 | 74 | 360 | 1.0 | 4.0 | 0.00 | 0.38 | 0.38 | 76 | 1012.0 |
| 20260905010021 | 74 | 360 | 1.0 | 4.0 | 0.00 | 0.38 | 0.38 | 77 | 1012.0 |
| 20260905004521 | 74 | 360 | 1.0 | 4.0 | 0.00 | 0.78 | 0.38 | 78 | 1012.1 |
| 20260905003019 | 74 | 360 | 1.0 | 4.0 | 0.00 | 0.78 | 0.38 | 78 | 1012.1 |
| 20260905001518 | 75 | 360 | 1.0 | 3.0 | 0.00 | 0.78 | 0.38 | 78 | 1012.1 |
| 20260905000017 | 75 | 360 | 2.0 | 5.0 | 0.00 | 0.78 | 0.38 | 77 | 1012.1 |
| 20260904234521 | 76 | 360 | 0.0 | 4.0 | 0.00 | 1.51 | 0.38 | 76 | 1012.0 |
| 20260904233017 | 76 | 360 | 2.0 | 4.0 | 0.00 | 1.51 | 0.38 | 75 | 1012.0 |
| 20260904231516 | 77 | 360 | 1.0 | 4.0 | 0.00 | 1.51 | 0.38 | 74 | 1012.1 |